STARLINK-11561, 62908

Orbit data source: Space-Track

STARLINK-11561, 62908 is a payload satellite owned by SpaceX/Seattle (US) in LEO that was launched on Sat, 08 Feb 2025 UTC via an FALCON 9 launch vehicle from the Air Force Eastern Test Range (AFETR). Payload-class satellites include a variety of spacecraft equipped with specific instruments for various scientific and technological missions. These include communications satellites like Starlink; space stations such as the ISS; scientific satellites like the Hubble; Earth observation satellites from companies like Planet Labs, Umbra, and HawkEye 360; GPS; miniature CubeSats for education and research; and military/defense satellites.

Loading next visibility...
Identifier
62908, 2025-027B
Orbit
LEO
Country
Flag of USUS
Related business
Manufacturer
SpaceX/Seattle
Mission
Operational Commercial Communications
Bus & Motor
STARLINK V2MD, Unknown motor
Mass
960 kg wet, ~910 kg dry
Launch date (UTC)
2025-02-08 (9 months ago)
Launch vehicle
FALCON 9
Launch site
Air Force Eastern Test Range (AFETR)
Object type
Payload
Rocket body
Debris
Shape & HBR
Box + 2 Pan, 18.1 m
Radar Cross Section
36.964 m², Large (>1 m²)

Expand to show TLE details & history
Last TLE update: 12 hours ago

TLE from 12 hours ago
0 STARLINK-11561
1 62908U 25027B   25299.39308400  .00439118  00000-0  32214-2 0  9995
2 62908  42.9994  76.9042 0002125 259.0836 100.9792 15.71037421 42033
Epoch: 2025-10-26T09:26Z
TLE epoch observation values (Epoch: 2025-10-26T09:26:02.457Z)
Latitude
-0.00007°
Longitude
-99.61604°
Altitude
355.975 km
Speed
7.697 km/s
True Right ascension
05h 07m 36s
True Declination
0° 00' 00"
Sunlit
Object was in full shadow at epoch
Visualization orbit readout
Latitude
Unknown
Longitude
Unknown
Altitude
Unknown
Speed
Unknown
Apparent Right ascension
Unknown
Apparent Declination
Unknown
Sunlit
N/A
Visualization observer readout
Local Sidereal Time
16:22:52
Azimuth
Unknown
Elevation
Unknown
Doppler factor
Unknown
Orbital elements
Apogee altitude
359.344 km
Perigee altitude
356.481 km
Semi-major axis
6,736.05 km
Eccentricity
0.00021
Inclination
42.9994°
RAAN
76.9042°
Arg. of periapsis
259.0836°
True anomaly
101.0031°
Mean anomaly
100.9792°
Eccentric anomaly
100.99115°
Mean motion
3.92586 °/min
Orbital period
91.7 mins
BSTAR
0.0032214
Loading maneuver chart data...
Computing Atmospheric mass density...
Loading historical data...
Loading historical data...
Loading historical data...
Loading historical data...
Loading historical data...
Loading historical data...
Loading historical data...

Documentation

Showing up to 5 results
|